User: anonymous
Location: Unspecified
(0.0000°N, 0.0000°E)
Time: 22:13:49
(UTC+00:00)
Language:

PLEIADES 1B - Orbit

View from above orbital plane
View from above orbital plane
View from above satellite
View from above satellite

Ground track
Ground track

The orbit data is extracted from the following two-line orbital elements,

1 39019U 12068A   14242.41996528  .00000207  00000-0  54345-4 0   160
2 39019 098.1952 316.3458 0001485 084.7998 275.3354 14.58555047 92779
Epoch (UTC): 30 August 2014 10:04:45
Eccentricity: 0.0001485
inclination: 98.1952°
perigee height: 697 km
apogee height: 699 km
right ascension of ascending node: 316.3458°
argument of perigee: 84.7998°
revolutions per day: 14.58555047
mean anomaly at epoch: 275.3354°
orbit number at epoch: 9277

The dashed part of the orbit path shows where the satellite is in the earth's shadow,  

DLR